FW2408 Weather Reports


time (UTC)temp
F
wind
direction
speed
knots
gust
knots
rain 1hr
in
rain 24hr
in
rain mn
in
humidity
%
barometer
mb
20200531080304 52 344 0.9 3.5 0.00 0.01 0.00 71 1014.2
20200531075528 53 296 0.9 4.3 0.00 0.01 0.00 71 1014.2
20200531075109 53 40 0.9 9.6 0.00 0.01 0.00 71 1014.1
20200531074620 53 297 2.6 10.4 0.00 0.01 0.00 70 1014.0
20200531074015 53 312 2.6 10.4 0.00 0.01 0.00 70 1014.0
20200531073552 53 5 1.7 8.7 0.00 0.01 0.00 69 1014.0
20200531073113 53 339 0.9 5.2 0.00 0.01 0.00 68 1014.0
20200531072505 54 17 0.9 6.1 0.00 0.01 0.00 67 1014.0
20200531072051 54 323 0.0 3.5 0.00 0.01 0.00 67 1014.0
20200531071616 54 323 0.9 7.8 0.00 0.01 0.00 66 1013.9
20200531070549 54 355 0.9 7.0 0.00 0.01 0.00 64 1013.7
20200531070008 55 11 0.9 3.5 0.00 0.01 0.00 63 1013.7
20200531065547 55 331 1.7 7.0 0.00 0.01 0.00 62 1013.7
20200531065032 55 355 1.7 7.0 0.00 0.01 0.00 61 1013.7
20200531064040 56 17 1.7 7.8 0.00 0.01 0.00 59 1013.8
20200531063517 56 267 3.5 7.8 0.00 0.01 0.00 58 1013.8
20200531063141 56 268 1.7 6.1 0.00 0.01 0.00 58 1013.7
20200531062536 56 9 0.9 5.2 0.00 0.01 0.00 57 1013.7
20200531062004 56 296 2.6 8.7 0.00 0.01 0.00 57 1013.8
20200531061618 57 279 3.5 8.7 0.00 0.07 0.00 57 1013.7
20200531061022 57 311 1.7 8.7 0.00 0.07 0.00 56 1013.6
20200531060107 57 277 2.6 6.1 0.00 0.07 0.00 57 1013.6
20200531055049 58 277 1.7 7.0 0.00 0.07 0.00 59 1013.6
20200531054521 58 277 1.7 9.6 0.00 0.07 0.00 59 1013.6
20200531054111 58 75 3.5 9.6 0.00 0.07 0.00 60 1013.6
20200531053534 59 347 3.5 9.6 0.00 0.07 0.00 65 1013.5
20200531053020 59 23 2.6 6.1 0.00 0.07 0.00 69 1013.5
20200531052546 59 286 0.9 4.3 0.00 0.07 0.00 70 1013.5
20200531052029 59 292 0.9 4.3 0.00 0.07 0.00 69 1013.4
20200531051502 60 261 0.0 2.6 0.00 0.11 0.07 69 1013.4
20200531051042 60 220 0.9 3.5 0.00 0.11 0.07 68 1013.3
20200531050521 60 360 0.9 5.2 0.00 0.11 0.07 69 1013.3
20200531045527 60 135 1.7 7.0 0.00 0.11 0.07 68 1013.1
20200531045002 61 254 0.0 3.5 0.00 0.11 0.07 68 1013.2
20200531044737 61 254 0.9 3.5 0.00 0.11 0.07 68 1013.1
20200531044020 61 324 0.0 0.0 0.00 0.11 0.07 67 1013.1
20200531043118 61 295 0.0 4.3 0.00 0.11 0.07 67 1013.1
20200531042517 61 314 0.9 4.3 0.00 0.11 0.07 67 1013.1
20200531042109 62 258 0.9 4.3 0.00 0.11 0.07 67 1013.0
20200531041659 62 341 0.0 8.7 0.00 0.11 0.07 67 1013.0
20200531041035 62 5 2.6 7.0 0.00 0.11 0.07 66 1013.0
20200531040605 62 281 1.7 4.3 0.00 0.11 0.07 67 1012.9
20200531040115 63 288 0.9 4.3 0.00 0.11 0.07 67 1012.9
20200531035604 63 344 1.7 4.3 0.00 0.11 0.07 67 1012.9
20200531035037 63 360 0.9 6.1 0.00 0.11 0.07 66 1012.9
20200531034524 63 268 1.7 7.8 0.00 0.11 0.07 66 1013.0
20200531034056 63 311 2.6 7.8 0.00 0.11 0.07 66 1012.9
20200531033529 63 311 0.0 5.2 0.00 0.11 0.07 65 1012.9
20200531033019 63 270 1.7 15.6 0.00 0.11 0.07 66 1012.9
20200531032551 64 309 2.6 15.6 0.00 0.11 0.07 65 1012.8
20200531032024 64 282 2.6 7.8 0.00 0.11 0.07 67 1012.8
20200531031040 64 300 0.9 5.2 0.00 0.11 0.07 68 1012.8
20200531030520 64 274 0.9 5.2 0.00 0.11 0.07 68 1012.8
20200531030201 64 298 0.9 4.3 0.00 0.11 0.07 69 1012.8
20200531025524 64 271 0.0 5.2 0.00 0.11 0.07 69 1012.8
20200531024623 64 225 0.9 3.5 0.00 0.11 0.07 69 1012.7
20200531024031 64 44 0.0 1.7 0.00 0.11 0.07 70 1012.6
20200531023154 64 44 0.0 2.6 0.00 0.11 0.07 70 1012.6
20200531022520 64 260 0.0 2.6 0.00 0.11 0.07 70 1012.6
20200531022100 64 269 0.9 3.5 0.00 0.11 0.07 70 1012.5
20200531021552 63 32 0.0 3.5 0.00 0.11 0.07 71 1012.5
20200531021024 63 328 1.7 6.1 0.00 0.11 0.07 71 1012.4
20200531020556 63 207 0.9 6.1 0.00 0.11 0.07 73 1012.4
20200531020059 64 297 0.0 1.7 0.00 0.11 0.07 74 1012.4
20200531015557 64 250 0.0 0.0 0.00 0.11 0.07 72 1011.9
20200531015036 64 250 0.0 0.0 0.00 0.11 0.07 71 1011.8
20200531014525 65 250 0.0 0.0 0.00 0.11 0.07 71 1011.7
20200531014104 65 250 0.0 0.0 0.00 0.11 0.07 70 1011.7
20200531013531 65 250 0.0 0.0 0.00 0.11 0.07 68 1011.6
20200531012542 66 250 0.0 0.0 0.00 0.11 0.07 67 1011.5
20200531012050 67 250 0.0 0.0 0.00 0.11 0.07 66 1011.4
20200531011053 67 250 0.0 0.0 0.00 0.11 0.07 65 1011.2
20200531010522 68 250 0.0 0.0 0.00 0.11 0.07 61 1011.2
20200531005532 69 250 0.0 0.0 0.00 0.11 0.07 61 1011.1
20200531005008 69 250 0.0 0.0 0.00 0.11 0.07 60 1011.0
20200531004554 69 250 0.0 0.0 0.00 0.11 0.07 61 1011.1
20200531004023 70 250 0.0 0.9 0.00 0.11 0.07 60 1011.0
20200531003104 70 250 0.0 0.0 0.00 0.11 0.07 58 1011.0
20200531002530 71 250 0.0 0.0 0.00 0.11 0.07 56 1011.0
20200531002059 71 250 0.0 1.7 0.00 0.11 0.07 55 1011.0
20200531001628 71 250 0.0 4.3 0.00 0.13 0.07 54 1011.0
20200531001011 71 213 0.9 3.5 0.00 0.13 0.07 53 1010.9
20200531000557 72 254 0.0 0.9 0.00 0.13 0.07 53 1010.9
20200531000011 72 254 0.0 3.5 0.00 0.13 0.07 52 1010.9
20200530235550 72 254 0.9 3.5 0.00 0.13 0.07 51 1010.9
20200530235026 72 273 0.0 2.6 0.00 0.13 0.07 51 1010.8
20200530234512 73 273 0.0 2.6 0.00 0.13 0.07 50 1010.8
20200530234047 73 273 0.0 1.7 0.00 0.13 0.07 52 1010.7
20200530233526 73 273 0.0 2.6 0.00 0.13 0.07 49 1010.7
20200530233001 73 273 0.0 3.5 0.00 0.13 0.07 49 1010.8
20200530232543 73 273 0.9 3.5 0.00 0.13 0.07 48 1010.8
20200530232026 73 256 0.9 6.1 0.00 0.13 0.07 49 1010.8
20200530231042 73 183 0.9 2.6 0.00 0.28 0.07 47 1010.7
20200530230522 74 183 0.9 1.7 0.00 0.28 0.07 46 1010.5
20200530225529 74 183 0.0 0.9 0.00 0.28 0.07 49 1010.4
20200530224618 75 183 0.0 0.9 0.00 0.28 0.07 49 1010.3
20200530224019 75 183 0.0 0.9 0.00 0.28 0.07 47 1010.2
20200530223119 75 183 0.0 0.9 0.00 0.28 0.07 42 1010.2
20200530222515 75 183 0.0 1.7 0.00 0.28 0.07 41 1010.1
20200530222059 75 183 0.0 1.7 0.00 0.28 0.07 41 1010.1
20200530221555 76 243 0.0 3.5 0.00 0.31 0.07 41 1010.1
20200530221016 76 243 0.9 3.5 0.00 0.31 0.07 40 1010.1
20200530220556 76 196 0.0 4.3 0.00 0.31 0.07 40 1010.0
20200530220016 77 195 0.9 6.1 0.00 0.31 0.07 38 1010.0
20200530215607 77 231 1.7 6.1 0.00 0.31 0.07 38 1010.0
20200530215033 78 213 1.7 6.1 0.00 0.31 0.07 36 1010.0
20200530214525 79 230 2.6 5.2 0.00 0.31 0.07 35 1010.0
20200530214050 80 144 1.7 5.2 0.00 0.31 0.07 37 1010.0
20200530213528 80 122 0.0 4.3 0.00 0.31 0.07 36 1010.0
20200530213032 79 19 0.9 4.3 0.00 0.31 0.07 40 1010.0
20200530212548 79 248 0.9 3.5 0.00 0.31 0.07 42 1009.9
20200530212032 79 5 0.9 6.1 0.00 0.31 0.07 40 1010.1
20200530211521 79 199 0.9 7.8 0.00 0.31 0.07 38 1010.1
20200530211048 78 16 2.6 7.8 0.00 0.31 0.07 37 1010.2
20200530210522 78 300 0.0 5.2 0.00 0.31 0.07 40 1010.2
20200530205528 78 232 0.9 4.3 0.00 0.31 0.07 38 1010.3
20200530205010 78 253 1.7 5.2 0.00 0.31 0.07 36 1010.3
20200530204625 79 231 0.9 3.5 0.00 0.31 0.07 37 1010.2
20200530204036 79 231 0.9 6.1 0.00 0.31 0.07 33 1010.3
20200530203502 80 272 1.7 7.8 0.00 0.31 0.07 40 1010.3
20200530203230 80 247 1.7 8.7 0.00 0.31 0.07 36 1010.3
20200530202523 80 223 0.9 6.1 0.00 0.31 0.07 34 1010.3
20200530201618 80 180 2.6 7.8 0.00 0.31 0.07 36 1010.4
20200530201019 80 198 2.6 5.2 0.00 0.31 0.07 35 1010.4
20200530200628 80 20 0.9 7.0 0.00 0.31 0.07 36 1010.4
20200530200025 80 272 2.6 7.0 0.00 0.31 0.07 35 1010.4
20200530195600 80 271 1.7 4.3 0.00 0.31 0.07 40 1010.3
20200530194523 79 302 3.5 7.8 0.00 0.31 0.07 37 1010.4
20200530194108 79 300 1.7 6.1 0.00 0.31 0.07 41 1010.4
20200530193525 79 193 1.7 6.1 0.00 0.31 0.07 38 1010.4
20200530193002 79 5 0.9 10.4 0.00 0.31 0.07 41 1010.5
20200530192545 79 271 3.5 10.4 0.00 0.31 0.07 36 1010.5
20200530192018 79 251 1.7 6.1 0.00 0.31 0.07 39 1010.4
20200530191650 79 225 1.7 8.7 0.00 0.31 0.07 41 1010.4
20200530191118 79 211 0.9 8.7 0.00 0.31 0.07 42 1010.5
20200530190508 79 276 3.5 7.8 0.00 0.31 0.07 38 1010.6
20200530190130 79 275 1.7 6.1 0.00 0.31 0.07 41 1010.5
20200530185514 79 345 1.7 6.1 0.00 0.31 0.07 43 1010.6
20200530185051 78 355 2.6 6.1 0.00 0.31 0.07 42 1010.5
20200530184539 78 277 2.6 7.0 0.00 0.31 0.07 41 1010.6
20200530183613 78 237 4.3 8.7 0.00 0.31 0.07 40 1010.7
20200530183024 78 284 2.6 7.8 0.00 0.31 0.07 45 1010.7
20200530182600 78 272 0.9 8.7 0.00 0.31 0.07 42 1010.8
20200530182032 77 338 2.6 8.7 0.00 0.31 0.07 44 1010.8
20200530181518 77 302 2.6 11.3 0.00 0.31 0.07 43 1010.8
20200530181053 77 271 5.2 11.3 0.00 0.31 0.07 40 1010.9
20200530180511 77 19 1.7 7.0 0.00 0.31 0.07 49 1010.9
20200530180112 76 288 2.6 8.7 0.00 0.31 0.07 43 1011.0
20200530175518 77 273 3.5 8.7 0.00 0.31 0.07 42 1011.0
20200530175057 76 270 2.6 8.7 0.00 0.31 0.07 43 1011.0
20200530174552 77 258 3.5 8.7 0.00 0.31 0.07 43 1011.0
20200530174012 76 300 3.5 8.7 0.00 0.31 0.07 48 1011.0
20200530173549 76 261 1.7 7.0 0.00 0.31 0.07 52 1011.2
20200530173227 76 271 2.6 8.7 0.00 0.31 0.07 45 1011.2
20200530172503 76 16 2.6 8.7 0.00 0.31 0.07 48 1011.1
20200530172049 76 185 4.3 7.8 0.00 0.31 0.07 47 1011.2
20200530171624 76 280 1.7 7.0 0.00 0.31 0.07 50 1011.2
20200530170540 76 277 1.7 6.1 0.00 0.31 0.07 51 1011.2
20200530170003 76 259 0.9 9.6 0.00 0.31 0.07 57 1011.2
20200530165618 75 314 2.6 9.6 0.00 0.31 0.07 53 1011.2
20200530165023 75 240 2.6 5.2 0.00 0.31 0.07 49 1011.3
20200530164637 75 14 1.7 9.6 0.00 0.31 0.07 51 1011.4
20200530164034 75 302 0.9 6.1 0.00 0.31 0.07 52 1011.5
20200530163511 74 338 1.7 8.7 0.00 0.31 0.07 57 1011.4
20200530163154 73 302 1.7 8.7 0.00 0.31 0.07 57 1011.5
20200530162524 73 9 1.7 7.8 0.00 0.31 0.07 54 1011.5
20200530162002 72 273 3.5 7.8 0.00 0.31 0.07 54 1011.6
20200530161551 72 355 0.9 5.2 0.00 0.31 0.07 61 1011.6
20200530161018 71 5 1.7 7.0 0.00 0.31 0.07 60 1011.8
20200530160559 71 325 1.7 9.6 0.00 0.31 0.07 58 1011.8
20200530160024 71 224 4.3 9.6 0.00 0.31 0.07 56 1011.9
20200530155601 71 225 2.6 7.8 0.00 0.31 0.07 58 1011.8
20200530155017 71 285 2.6 7.8 0.00 0.31 0.07 62 1011.9
20200530154636 71 234 2.6 7.8 0.00 0.31 0.07 63 1012.0
20200530154040 70 16 0.9 7.8 0.00 0.31 0.07 62 1012.0
20200530153505 69 288 2.6 7.8 0.00 0.31 0.07 64 1012.1
20200530153133 69 269 3.5 7.8 0.00 0.31 0.07 64 1012.1
20200530152533 68 299 1.7 12.2 0.00 0.31 0.07 68 1012.1
20200530151613 68 254 5.2 13.0 0.00 0.31 0.07 64 1012.2
20200530151024 67 265 4.3 13.0 0.00 0.31 0.07 67 1012.3
20200530150559 67 215 1.7 7.8 0.00 0.31 0.07 65 1012.2
20200530150205 67 255 0.9 7.8 0.00 0.31 0.07 69 1012.4
20200530145041 67 261 1.7 7.0 0.00 0.31 0.07 70 1012.3
20200530144537 67 280 0.9 7.8 0.00 0.31 0.07 69 1012.4
20200530144059 67 281 1.7 8.7 0.00 0.31 0.07 69 1012.4
20200530143536 66 312 2.6 8.7 0.00 0.31 0.07 70 1012.4
20200530143032 66 294 2.6 7.8 0.00 0.31 0.07 69 1012.4
20200530142556 66 224 1.7 8.7 0.00 0.31 0.07 70 1012.4
20200530142029 67 273 3.5 8.7 0.00 0.31 0.07 69 1012.4
20200530141510 67 300 3.5 7.8 0.00 0.32 0.07 69 1012.4
20200530141048 67 320 1.7 4.3 0.00 0.32 0.07 75 1012.3
20200530140523 66 355 1.7 7.0 0.00 0.32 0.07 75 1012.3
20200530135527 66 196 4.3 7.8 0.00 0.32 0.07 72 1012.3
20200530135003 66 250 2.6 7.8 0.00 0.32 0.07 75 1012.3
20200530134632 66 267 1.7 6.1 0.00 0.32 0.07 75 1012.4
20200530134022 66 307 1.7 7.0 0.00 0.32 0.07 74 1012.3
20200530133055 67 275 1.7 7.8 0.00 0.32 0.07 77 1012.3
20200530132523 67 360 0.0 3.5 0.00 0.32 0.07 79 1012.4
20200530131600 66 270 0.9 5.2 0.00 0.32 0.07 77 1012.4
20200530131026 66 355 0.9 5.2 0.00 0.32 0.07 76 1012.4
20200530130605 66 325 1.7 5.2 0.00 0.32 0.07 79 1012.3
20200530130021 66 5 2.6 7.0 0.00 0.32 0.07 78 1012.2
20200530125559 66 339 0.9 7.0 0.00 0.32 0.07 80 1012.1
20200530125036 66 265 2.6 7.0 0.00 0.32 0.07 80 1012.1
20200530124513 65 5 1.7 6.1 0.00 0.32 0.07 85 1012.1
20200530124053 64 327 0.9 7.8 0.00 0.32 0.07 86 1012.0
20200530123537 64 355 0.9 3.5 0.00 0.32 0.07 87 1012.0
20200530123022 63 298 0.9 3.5 0.00 0.32 0.07 88 1012.0
20200530122549 63 355 0.9 3.5 0.00 0.32 0.07 87 1011.9
20200530122102 63 360 0.9 7.0 0.00 0.32 0.07 87 1011.9
20200530121518 63 346 1.7 7.0 0.00 0.32 0.07 87 1011.8
20200530121044 63 301 1.7 6.1 0.00 0.32 0.07 88 1011.8
20200530120532 63 301 0.9 7.8 0.00 0.32 0.07 91 1011.7
20200530115519 63 360 0.0 4.3 0.00 0.32 0.07 91 1011.5
20200530114605 63 265 0.0 7.0 0.00 0.32 0.07 92 1011.4
20200530114015 62 288 1.7 7.0 0.00 0.32 0.07 93 1011.3
20200530113602 62 16 0.0 2.6 0.00 0.32 0.07 94 1011.3
20200530113050 62 249 0.0 3.5 0.00 0.32 0.07 95 1011.2
20200530112513 62 205 0.0 3.5 0.00 0.32 0.07 95 1011.2
20200530112054 62 284 0.0 2.6 0.00 0.32 0.07 95 1011.1
20200530111548 62 269 0.0 2.6 0.00 0.32 0.07 95 1010.9
20200530111012 62 355 0.0 5.2 0.00 0.32 0.07 95 1011.0
20200530110602 62 266 0.0 5.2 0.00 0.32 0.07 95 1011.0
20200530110019 62 270 0.9 3.5 0.01 0.32 0.07 96 1011.0
20200530105605 62 262 0.0 1.7 0.01 0.32 0.07 96 1011.0
20200530105032 62 187 0.0 1.7 0.01 0.32 0.07 96 1011.1
20200530104515 62 187 0.0 2.6 0.01 0.32 0.07 96 1011.1
20200530104057 62 187 0.0 2.6 0.01 0.32 0.07 96 1011.0
20200530103530 62 275 0.0 0.0 0.01 0.32 0.07 96 1011.0
20200530103011 61 275 0.0 0.0 0.01 0.32 0.07 96 1011.0
20200530102557 61 257 0.0 0.0 0.01 0.32 0.07 96 1010.8
20200530102029 61 257 0.0 0.0 0.01 0.32 0.07 96 1010.9
20200530101520 61 257 0.0 0.0 0.01 0.32 0.07 96 1010.9
20200530101051 61 257 0.0 0.9 0.01 0.32 0.07 96 1010.9
20200530100528 61 258 0.0 0.9 0.01 0.32 0.07 95 1010.7
20200530095534 61 258 0.0 1.7 0.00 0.31 0.06 95 1010.7
20200530095008 61 258 0.0 0.0 0.00 0.31 0.06 95 1010.6
20200530094628 61 258 0.0 0.0 0.00 0.31 0.06 95 1010.5
20200530094032 61 258 0.0 0.0 0.00 0.31 0.06 95 1010.4
20200530093506 61 258 0.0 0.0 0.00 0.31 0.06 95 1010.4
20200530093123 62 258 0.0 0.0 0.00 0.31 0.06 95 1010.4
20200530092535 62 258 0.0 0.0 0.00 0.31 0.06 95 1010.3
20200530092006 62 258 0.0 0.0 0.00 0.31 0.06 95 1010.3
20200530091608 62 258 0.0 1.7 0.00 0.31 0.06 95 1010.1
20200530091034 62 258 0.0 1.7 0.00 0.31 0.06 95 1010.2
20200530090501 62 258 0.0 1.7 0.00 0.31 0.06 95 1010.1
20200530090052 62 258 0.0 1.7 0.00 0.31 0.06 95 1010.1
20200530085501 63 258 0.0 0.0 0.00 0.31 0.06 95 1010.0
20200530085043 63 258 0.0 2.6 0.00 0.31 0.06 95 1010.1
20200530084540 63 258 0.0 2.6 0.00 0.31 0.06 95 1010.1
20200530083541 63 258 0.0 2.6 0.00 0.31 0.06 95 1010.1
20200530083021 63 258 0.9 2.6 0.00 0.31 0.06 95 1010.0
20200530082039 63 198 0.0 2.6 0.00 0.31 0.06 95 1010.0
20200530081524 63 242 0.0 1.7 0.00 0.31 0.06 95 1009.9
20200530080550 63 242 0.0 2.6 0.00 0.31 0.06 95 1010.0